Weather History for Paris Orly, France

Change the Weather History Date:

Tuesday, February 12, 2013

  Actual Average Record
Temperature  
Mean Temperature 35 °F -  
Max Temperature 37 °F 49 °F 59 °F (1998)
Min Temperature 33 °F 36 °F 15 °F (2012)
Degree Days  
Heating Degree Days 30    
Moisture  
Dew Point 31 °F    
Average Humidity 83    
Maximum Humidity 93    
Minimum Humidity 66    
Precipitation  
Precipitation 0.01 in - - ()
Sea Level Pressure  
Sea Level Pressure 29.84 in    
Wind  
Wind Speed 7 mph ()    
Max Wind Speed 12 mph    
Max Gust Speed -    
Visibility 5.1 miles    
Events      
Averages and records for this station are not official NWS values.
T = Trace of Precipitation, MM = Missing Value Source: Averaged Metar Reports

Daily Weather History Graph

Daily Weather History Graph

Search for Another Location

Airport:

Trip Planner

Search our weather history database for the weather conditions in past years. The results will help you decide how hot, cold, wet, or windy it might be!

Date:

Astronomy

Feb. 12, 2013 Rise Set
Actual Time 8:03 AM CET 6:06 PM CET
Civil Twilight 7:30 AM CET 6:39 PM CET
Nautical Twilight 6:53 AM CET 7:16 PM CET
Astronomical Twilight 6:17 AM CET 7:53 PM CET
Moon 8:36 AM CET (2/12) 9:10 PM CET (2/12)
Length of Visible Light 11h 08m
Length of Day
10h 03m
Waxing Crescent, 6% of the Moon is Illuminated
Feb 12
Waxing Crescent
Feb 17
First Quarter
Feb 25
Full
Mar 4
Last Quarter
Mar 11
New

Hourly Weather History & Observations

Time (CET) Temp. Windchill Dew Point Humidity Pressure Visibility Wind Dir Wind Speed Gust Speed Precip Events Conditions
12:00 AM 39.2 °F 35.0 °F 33.8 °F 81% 29.62 in 6.2 mi NW 5.8 mph - N/A   Mostly Cloudy
12:30 AM 39.2 °F 34.2 °F 33.8 °F 81% 29.62 in 6.2 mi NNW 6.9 mph - N/A   Mostly Cloudy
1:00 AM 39 °F - 34 °F 75% 29.67 in 12 mi NNW 8.1 mph - -   Mostly Cloudy
1:00 AM 39.2 °F 33.6 °F 33.8 °F 81% 29.65 in 6.2 mi NNW 8.1 mph - N/A   Mostly Cloudy
1:30 AM 37.4 °F 32.1 °F 33.8 °F 87% 29.65 in 6.2 mi NNW 6.9 mph - N/A   Mostly Cloudy
2:00 AM 37.4 °F 31.4 °F 32.0 °F 81% 29.65 in 6.2 mi North 8.1 mph - N/A   Mostly Cloudy
2:30 AM 37.4 °F 32.8 °F 33.8 °F 87% 29.65 in 6.2 mi NNW 5.8 mph - N/A   Mostly Cloudy
3:00 AM 37.4 °F 32.8 °F 33.8 °F 87% 29.68 in 6.2 mi NW 5.8 mph - N/A   Mostly Cloudy
3:30 AM 37.4 °F 32.8 °F 33.8 °F 87% 29.68 in 6.2 mi NNW 5.8 mph - N/A   Mostly Cloudy
4:00 AM 37.4 °F 32.8 °F 33.8 °F 87% 29.68 in 6.2 mi NNW 5.8 mph - N/A   Mostly Cloudy
4:30 AM 37.4 °F 32.1 °F 33.8 °F 87% 29.68 in 6.2 mi NNW 6.9 mph - N/A   Mostly Cloudy
5:00 AM 37.4 °F 32.1 °F 33.8 °F 87% 29.71 in 6.2 mi North 6.9 mph - N/A   Mostly Cloudy
5:30 AM 37.4 °F 32.1 °F 33.8 °F 87% 29.71 in 6.2 mi North 6.9 mph - N/A   Mostly Cloudy
6:00 AM 37.4 °F 32.1 °F 33.8 °F 87% 29.71 in 5.6 mi North 6.9 mph - N/A   Mostly Cloudy
6:30 AM 37.4 °F 31.4 °F 33.8 °F 87% 29.74 in 3.1 mi North 8.1 mph - N/A   Mostly Cloudy
7:00 AM 36 °F - 34 °F 90% 29.76 in 3 mi NNE 8.1 mph - -   Overcast
7:00 AM 35.6 °F 29.2 °F 33.8 °F 93% 29.74 in 3.1 mi NNE 8.1 mph - N/A   Mostly Cloudy
7:30 AM 35.6 °F 29.9 °F 33.8 °F 93% 29.74 in 2.5 mi NNE 6.9 mph - N/A   Light Drizzle
8:00 AM 35.6 °F 28.0 °F 33.8 °F 93% 29.77 in 1.9 mi North 10.4 mph - N/A   Light Drizzle
8:30 AM 35.6 °F 29.2 °F 33.8 °F 93% 29.77 in 3.1 mi North 8.1 mph - N/A   Light Drizzle
9:00 AM 35.6 °F 28.0 °F 33.8 °F 93% 29.80 in 4.3 mi North 10.4 mph - N/A   Mostly Cloudy
9:30 AM 35.6 °F 28.0 °F 32.0 °F 87% 29.80 in 4.3 mi NNE 10.4 mph - N/A   Mostly Cloudy
10:00 AM 35.6 °F 27.5 °F 33.8 °F 93% 29.83 in 3.7 mi NNE 11.5 mph - N/A   Light Drizzle
10:30 AM 35.6 °F 27.5 °F 32.0 °F 87% 29.83 in 3.7 mi NNE 11.5 mph - N/A   Mostly Cloudy
11:00 AM 35.6 °F 29.2 °F 32.0 °F 87% 29.86 in 3.1 mi NNE 8.1 mph - N/A   Mostly Cloudy
11:30 AM 35.6 °F 28.6 °F 32.0 °F 87% 29.86 in 3.1 mi NNE 9.2 mph - N/A   Mostly Cloudy
12:00 PM 35.6 °F 29.9 °F 32.0 °F 87% 29.89 in 3.1 mi NNE 6.9 mph - N/A   Mostly Cloudy
12:30 PM 35.6 °F 29.9 °F 32.0 °F 87% 29.89 in 3.1 mi NNE 6.9 mph - N/A   Mostly Cloudy
1:00 PM 36 °F - 32 °F 81% 29.91 in 4 mi NE 5.8 mph - -   Partly Cloudy
1:00 PM 35.6 °F 30.7 °F 32.0 °F 87% 29.89 in 3.7 mi NE 5.8 mph - N/A   Mostly Cloudy
1:30 PM 35.6 °F 29.9 °F 32.0 °F 87% 29.89 in 5.0 mi NE 6.9 mph - N/A   Mostly Cloudy
2:00 PM 35.6 °F 29.9 °F 32.0 °F 87% 29.89 in 5.0 mi NE 6.9 mph - N/A   Mostly Cloudy
2:30 PM 37.4 °F 32.8 °F 32.0 °F 81% 29.89 in 5.0 mi NE 5.8 mph - N/A   Mostly Cloudy
3:00 PM 37.4 °F 32.8 °F 30.2 °F 75% 29.89 in 5.0 mi North 5.8 mph - N/A   Mostly Cloudy
3:30 PM 37.4 °F 32.1 °F 32.0 °F 81% 29.92 in 5.6 mi North 6.9 mph - N/A   Mostly Cloudy
4:00 PM 35.6 °F 29.9 °F 30.2 °F 81% 29.92 in 5.6 mi NE 6.9 mph - N/A   Mostly Cloudy
4:30 PM 35.6 °F 30.7 °F 30.2 °F 81% 29.95 in 5.6 mi NE 5.8 mph - N/A   Mostly Cloudy
5:00 PM 35.6 °F 29.9 °F 30.2 °F 81% 29.95 in 6.2 mi NE 6.9 mph - N/A   Mostly Cloudy
5:30 PM 35.6 °F 29.2 °F 30.2 °F 81% 29.95 in 6.2 mi NE 8.1 mph - N/A   Mostly Cloudy
6:00 PM 35.6 °F 30.7 °F 28.4 °F 75% 29.95 in 6.2 mi NE 5.8 mph - N/A   Mostly Cloudy
6:30 PM 35.6 °F 30.7 °F 28.4 °F 75% 29.98 in 6.2 mi NE 5.8 mph - N/A   Mostly Cloudy
7:00 PM 35 °F - 28 °F 66% 30.01 in 7 mi NE 5.8 mph - -   Overcast
7:00 PM 35.6 °F 30.7 °F 28.4 °F 75% 29.98 in 6.2 mi NE 5.8 mph - N/A   Mostly Cloudy
7:30 PM 35.6 °F 29.9 °F 26.6 °F 70% 29.98 in 6.2 mi NE 6.9 mph - N/A   Mostly Cloudy
8:00 PM 35.6 °F 30.7 °F 26.6 °F 70% 30.01 in 6.2 mi ENE 5.8 mph - N/A   Mostly Cloudy
8:30 PM 35.6 °F 31.7 °F 26.6 °F 70% 30.01 in 6.2 mi NNE 4.6 mph - N/A   Mostly Cloudy
9:00 PM 35.6 °F 29.9 °F 26.6 °F 70% 30.01 in 6.2 mi NE 6.9 mph - N/A   Mostly Cloudy
9:30 PM 33.8 °F 28.6 °F 26.6 °F 75% 30.04 in 6.2 mi NE 5.8 mph - N/A   Mostly Cloudy
10:00 PM 33.8 °F 28.6 °F 26.6 °F 75% 30.04 in 5.0 mi NNE 5.8 mph - N/A   Mostly Cloudy
10:30 PM 33.8 °F 27.0 °F 26.6 °F 75% 30.06 in 3.7 mi NNE 8.1 mph - N/A   Mostly Cloudy
11:00 PM 33.8 °F 26.4 °F 28.4 °F 81% 30.04 in 3.7 mi NE 9.2 mph - N/A   Mostly Cloudy
11:30 PM 33.8 °F 25.3 °F 26.6 °F 75% 30.06 in 3.7 mi NE 11.5 mph - N/A   Mostly Cloudy